Location: Saint-Gilles les Bains
(21.0539°S, 55.2287°E)
Time: 07:54:31
(UTC+04:00)

Hubble Space Telescope - Pass Details

Date: 17 June 2021
Orbit: 535 x 539 km, 28.5° (Epoch: 28 July)

Event Time Altitude Azimuth Distance (km) Brightness Sun altitude
Exits shadow 06:05:10 15° 230° (SW) 1,504 2.5 -11.4°
Maximum altitude 06:08:02 32° 172° (S) 938 1.9 -10.8°
Drops below altitude 10° 06:11:48 10° 108° (ESE) 1,795 4.3 -10.0°
Sets 06:14:14 0° 97° (E) 2,684 5.5 -9.4°
